Погода в Гиресуне

Турция     40°55′06″N   38°23′41″E
темп.,
°C
ветер,
м/с
пор.,
м/с
влажн.,
%
обл.,
%
осадки,
мм/ч
давл.,
гПа
погр.,
м
14 мая, пт
пт1400:00+16з11660 0.0 100911
03:00+16ююз11640 0.0 100911
06:00+17вюв12590 0.0 100917
09:00+17зсз56680 0.0 1011137
12:00+17з34725 0.0 1012175
15:00+17з34746 0.0 1013158
18:00+17зюз227424 0.0 101367
21:00+16зюз22785 0.0 101315
15 мая, сб
сб1500:00+15з11780 0.0 101312
03:00+15зюз33800 0.0 101437
06:00+15зюз23780 0.0 101431
09:00+16сз22700 0.0 1014120
12:00+17сз22670 0.0 1014169
15:00+17зсз22650 0.0 1013150
18:00+17з22660 0.0 101283
21:00+16юз11731 0.0 101211
16 мая, вс
вс1600:00+15зюз22715 0.0 101114
03:00+15ююв117568 0.0 100911
06:00+15вюв1273100 0.0 100711
09:00+16с216738 0.0 1007118
12:00+17св33680 0.0 1005139
15:00+17всв337053 0.0 1004162
18:00+17з347369 0.0 1004150
21:00+15зюз4580100 0.0 100684
17 мая, пн
пн1700:00+15юз2376100 0.0 100531
03:00+15ююз2381100 0.0 100760
06:00+15ю337789 0.0 100737
09:00+16з4678100 0.0 1010240
12:00+17зсз3580100 0.0 1011291
15:00+17зсз347848 0.0 1011242
18:00+16ю3386100 0.9 101253
21:00+16ю4488100 3.8 101469
18 мая, вт
вт1800:00+15ю2286100 0.2 101424
03:00+16ююв2285100 0.2 101314
06:00+16юв018599 0.0 101511
09:00+17всв227738 0.0 1015122
12:00+18св33734 0.0 1016195
15:00+18всв44740 0.1 1015176
18:00+17в34770 0.0 101599
21:00+16в33830 0.0 101535